Flag for Malaysia Weather past 2 weeks in Kuala Lumpur, Malaysia

Now
82 °F

Broken clouds.


Feels Like: 89 °F
Forecast: 76 / 86 °F
Wind: 1 mph from North

Location: Sultan Abdul Aziz Shah-Subang

Current Time: Dec 18, 2014 at 10:57:55 AM

Latest Report: Dec 18, 2014 at 10:00 AM


Visibility: 6 mi

Pressure: 29.89 "Hg

Humidity: 79%

Dew point: 75 °F

Location of Kuala LumpurLocation

Historic Weather in Kuala Lumpur — Graph

°F

Kuala Lumpur temperature yesterday

Maximum temperature yesterday: 86 °F (at 3:00 PM)
Minimum temperature yesterday: 77 °F (at 12:00 AM)
Average temperature yesterday: 80 °F

Past Weeks' High & Low Weather Summary

 TemperatureHumidityPressure
High93 °F (Dec 9, 1:00 PM)100% (Dec 4, 4:00 AM)29.95 "Hg (Dec 4, 4:00 AM)
Low75 °F (Dec 10, 11:00 PM)53% (Dec 9, 1:00 PM)29.71 "Hg (Dec 3, 5:00 PM)
Average81 °F84%29.84 "Hg
* Reported Dec 3 9:00 AM — Dec 18 9:00 AM, Kuala Lumpur, Weather by CustomWeather, © 2014

Note: Actual official high and low records may vary slightly from our data, if they occured in-between our weather recording intervals... More about our weather records

Advertising

Kuala Lumpur weather history for previous 24 hours

 ConditionsComfort  
Time TempWeatherWind HumidityBarometerVisibility
9:00 AM
Dec 18
79 °FBroken clouds.1 mph94%29.89 "Hg5 mi
8:00 AM79 °FPartly sunny.1 mph89%29.86 "Hg4 mi
7:00 AM77 °FPassing clouds.1 mph94%29.83 "Hg3 mi
6:00 AM77 °FPassing clouds.1 mph94%29.83 "Hg3 mi
5:00 AM77 °FPassing clouds.No wind94%29.80 "Hg3 mi
4:00 AM77 °FPartly cloudy.No wind94%29.80 "Hg4 mi
3:00 AM77 °FPartly cloudy.No wind94%29.83 "Hg4 mi
2:00 AM79 °FPartly cloudy.2 mph89%29.86 "Hg4 mi
1:00 AM79 °FPartly cloudy.1 mph94%29.86 "Hg4 mi
12:00 AM79 °FPartly cloudy.2 mph94%29.89 "Hg6 mi
11:00 PM
Dec 17
79 °FPartly cloudy.2 mph94%29.89 "HgN/A
10:00 PM81 °FPartly cloudy.3 mph89%29.86 "HgN/A
9:00 PM81 °FPartly cloudy.3 mph89%29.83 "HgN/A
8:00 PM82 °FPassing clouds.5 mph84%29.83 "HgN/A
7:00 PM82 °FPartly sunny.7 mph84%29.77 "HgN/A
6:00 PM82 °FBroken clouds.6 mph84%29.77 "HgN/A
5:00 PM82 °FBroken clouds.5 mph84%29.74 "HgN/A
4:00 PM84 °FBroken clouds.7 mph74%29.74 "Hg6 mi
3:00 PM86 °FBroken clouds.3 mph70%29.80 "Hg6 mi
2:00 PM84 °FBroken clouds.5 mph79%29.83 "Hg4 mi
1:00 PM82 °FBroken clouds.2 mph79%29.86 "Hg5 mi
12:00 PM82 °FPartly sunny.1 mph79%29.89 "Hg4 mi
11:00 AM81 °FLight rain. Partly sunny.1 mph84%29.89 "Hg3 mi
10:00 AM81 °FPartly sunny.1 mph89%29.89 "Hg2 mi
Weather by CustomWeather, © 2014

See weather overviewHow to use our weather pages